Location: Fountain Hills
(33.6120°N, 111.7170°W)
Time: 04:48:42
(UTC-07:00)

Daily predictions for brighter satellites

Satellite Brightness Start Highest point End
(mag) Time Altitude Azimuth Time Altitude Azimuth Time Altitude Azimuth
USA 238 DEB 4.2 00:10:53 55° NW 00:10:53 55° NW 00:17:41 10° NNE
USA 238 4.2 00:11:01 56° NW 00:11:01 56° NW 00:17:46 10° NNE
CZ-4C R/B 3.6 00:34:00 31° NE 00:34:00 31° NE 00:37:03 10° NNE
NOSS 3-2 (C) 4.2 00:46:58 49° NNE 00:46:58 49° NNE 00:51:39 10° NNE
Cosmos 1943 Rocket 4.3 00:41:15 10° NW 00:42:49 17° WNW 00:42:49 17° WNW
CENTAUR R/B 4.4 00:57:54 19° E 00:57:54 19° E 01:00:42 10° ENE
Cosmos 2344 3.5 01:08:27 80° E 01:08:27 80° E 01:16:29 10° NNE
CZ-2C R/B 4.2 01:10:39 43° N 01:10:39 43° N 01:14:23 10° N
BREEZE-M TANK 3.9 00:53:53 10° WSW 01:12:03 67° N 01:15:37 10° NE
CZ-2C R/B 3.9 01:08:30 10° N 01:12:11 37° NNW 01:12:11 37° NNW
Cosmos 1980 Rocket 4.3 01:37:40 10° N 01:41:51 21° ENE 01:45:46 11° ESE
Cosmos 2082 Rocket 2.8 01:53:33 49° NNW 01:53:33 49° NNW 01:58:03 10° NNE
Meteor 2-11 Rocket 4.4 01:55:47 10° N 02:01:44 79° NE 02:01:44 79° NE
USA 215 3.8 01:57:05 10° NNE 02:03:17 48° NW 02:04:33 43° WNW
Cosmos 1697 Rocket 3.2 01:59:01 10° N 02:04:35 55° ENE 02:05:05 53° E
NPP 3.9 02:02:14 10° NNE 02:07:00 66° NE 02:07:00 66° NE
CZ-2D R/B 4.3 02:05:52 10° ENE 02:08:50 15° E 02:10:34 13° ESE
Cosmos 1833 Rocket 3.2 02:10:56 50° NW 02:10:56 50° NW 02:15:45 10° N
Cosmos 968 Rocket 4.2 02:18:16 45° E 02:18:16 45° E 02:22:53 10° NNE
CZ-4C R/B 4.3 02:19:10 15° WNW 02:20:35 16° NW 02:24:06 10° N
Cosmos 1633 Rocket 4.0 02:22:00 46° N 02:22:00 46° N 02:25:09 10° N
SL-08 R/B 3.6 02:25:25 65° N 02:25:25 65° N 02:29:37 10° N
ATLAS 5 CENTAUR R/B 4.3 02:26:43 11° ESE 02:27:36 11° ESE 02:29:06 10° E
Atlas Centaur 2 4.2 02:33:10 21° SE 02:33:10 21° SE 02:35:22 10° SE
ADEOS 3.5 02:28:12 10° NNE 02:33:27 77° ESE 02:33:32 76° ESE
Cosmos 1470 Rocket 4.1 02:36:22 56° ENE 02:36:22 56° ENE 02:40:25 10° NNE
Cosmos 1726 3.9 02:32:39 10° N 02:34:30 28° N 02:34:30 28° N
Cosmos 332 Rocket 4.3 02:31:59 10° N 02:36:42 55° ENE 02:37:26 49° ESE
Cosmos 1745 Rocket 4.0 02:36:30 63° WSW 02:36:57 65° W 02:43:17 10° N
Cosmos 1386 Rocket 4.4 02:36:18 67° S 02:37:15 90° ESE 02:43:30 10° N
SL-16 R/B 4.4 02:33:35 10° N 02:38:00 23° ENE 02:42:24 10° ESE
Cosmos 1933 Rocket 3.9 02:41:26 61° ENE 02:41:26 61° ENE 02:45:25 10° NNE
Lacrosse 5 3.7 02:38:01 10° NNW 02:42:28 30° NE 02:46:53 10° ESE
Meteor 1-11 4.5 02:42:29 53° W 02:42:29 53° W 02:48:09 10° N
CBERS-1 4.2 02:39:25 10° N 02:44:14 57° WNW 02:44:14 57° WNW
Cosmos 1271 Rocket 4.2 02:42:22 10° NNE 02:45:47 31° ENE 02:46:13 30° E
CENTAUR R/B 2.8 02:45:04 48° W 02:46:05 52° NW 02:52:37 10° NNE
IRS-1D 4.2 02:43:45 10° NNE 02:48:57 51° E 02:50:26 40° SSE
Cosmos 1709 Rocket 4.2 02:46:49 41° SSE 02:49:03 67° E 02:55:19 10° NNE
IRS-1C 4.1 02:44:26 10° N 02:49:44 65° WNW 02:50:01 64° W
Cosmos 1626 3.1 02:50:39 43° ENE 02:50:39 43° ENE 02:53:55 10° NNE
Nadezhda 1 Rocket 3.8 02:44:48 10° N 02:50:57 74° W 02:52:04 59° SSW
Cosmos 2322 Rocket 3.8 02:48:27 10° N 02:53:28 33° ENE 02:58:27 10° SE
ARIANE 5 R/B 2.7 02:49:59 10° NNE 02:55:05 67° ESE 02:56:07 52° SSE
BREEZE-M DEB (TANK) 3.9 02:57:23 55° SW 02:58:44 88° NW 03:14:24 10° NE
Okean O Rocket 3.9 02:55:50 10° NE 02:58:57 19° E 03:01:43 11° SE
ERS-1 4.4 02:57:57 10° N 03:03:02 75° WNW 03:03:50 62° SW
Cosmos 2292 Rocket 3.9 03:07:41 40° NE 03:07:41 40° NE 03:09:59 10° NNE
deb Kosmos-1763 4.4 03:15:57 57° NW 03:15:57 57° NW 03:19:30 10° N
Resurs 1-4 Rocket 2.2 03:10:38 10° NNE 03:15:58 75° ESE 03:18:14 35° S
OAO 3 Rocket 3.0 03:18:02 59° WSW 03:18:55 84° SSE 03:23:39 10° E
Cosmos 1862 Rocket 3.4 03:15:19 10° N 03:19:48 79° W 03:20:51 52° S
GPS 2-05 Rocket1 3.9 03:24:04 34° SE 03:24:04 34° SE 03:26:44 10° E
Cosmos 1980 Rocket 2.4 03:20:41 10° NW 03:26:03 46° WSW 03:27:25 38° SW
Cosmos 1346 3.6 03:26:31 52° ESE 03:26:42 54° E 03:29:43 10° NNE
Centaur D-1A AC-32 3.4 03:26:33 35° SSW 03:28:08 45° SSE 03:42:46 10° E
CZ-4B R/B 4.5 03:23:43 10° NNE 03:28:44 37° E 03:33:48 10° SSE
Cosmos 371 Rocket 3.2 03:25:27 10° NNW 03:30:14 62° WSW 03:32:13 34° S
Cosmos 2181 Rocket 3.9 03:32:29 10° NNW 03:38:36 69° W 03:43:24 17° S
Cosmos 1869 3.3 03:35:29 10° NNW 03:39:23 61° W 03:40:30 41° SSW
Cosmos 1869 Rocket 3.7 03:38:21 24° S 03:40:53 72° E 03:45:16 10° N
UNKNOWN OBJECT B 2.6 03:39:44 10° N 03:43:31 71° WNW 03:44:51 38° SSW
MOS 1-B 4.4 03:37:47 10° N 03:43:31 64° WNW 03:46:49 26° SSW
Cosmos 1697 Rocket 4.4 03:44:38 10° WNW 03:46:45 15° W 03:46:45 15° W
Cosmos 1455 2.8 03:44:36 10° NNW 03:48:05 35° W 03:48:22 34° WSW
SEDSat Delta rocket 3.9 03:44:01 23° WSW 03:48:25 74° S 03:54:45 10° E
CZ-2D R/B 2.3 03:44:04 10° N 03:49:09 52° WNW 03:51:54 26° SW
Cosmos 1933 3.2 03:48:48 10° N 03:52:50 89° W 03:56:30 12° S
SL-16 R/B 2.6 03:47:53 12° S 03:53:31 55° W 03:59:39 10° NNW
Cosmos 304 Rocket 4.5 03:49:02 10° N 03:53:47 56° ENE 03:58:31 10° SSE
Cosmos 1833 4.2 03:52:45 20° SSW 03:56:51 89° WNW 04:02:39 10° NNE
IRS-1C Rocket 4.0 03:52:06 10° N 03:57:24 79° WNW 04:01:31 17° SSW
Lacrosse 5 rocket 3.3 03:59:24 10° NNW 04:03:33 36° NE 04:07:46 10° ESE
Meteor 2-3 Rocket 4.2 03:58:28 10° S 04:04:07 62° E 04:09:49 10° NNE
PSLV R/B 3.8 04:02:40 10° N 04:06:33 69° WNW 04:09:27 18° SSW
Cosmos 923 Rocket 4.0 04:04:21 10° NNW 04:09:31 59° WSW 04:14:37 10° S
ATLAS 5 CENTAUR R/B 1.9 04:08:18 21° SW 04:11:31 63° WNW 04:16:36 10° NNE
Meteor 1-4 Rocket 4.5 04:10:20 10° NW 04:12:28 15° W 04:12:28 15° W
Cosmos 2074 Rocket 4.1 04:07:52 13° SSW 04:13:15 57° W 04:19:23 10° N
Cosmos 2184 Rocket 4.1 04:07:57 12° SSW 04:13:45 60° W 04:20:02 10° N
Cosmos 1703 Rocket 3.8 04:09:51 10° NNW 04:14:03 48° W 04:18:12 10° SSW
Thor Agena Rocket 3.6 04:11:15 10° SSE 04:16:32 85° WSW 04:21:51 10° NNW
Atlas Centaur 2 4.0 04:15:57 16° SW 04:17:12 16° SW 04:21:11 10° S
Cosmos 1733 Rocket 4.1 04:13:58 10° SSE 04:18:04 45° E 04:22:12 10° NNE
Cosmos 1680 Rocket 3.5 04:15:25 10° NNW 04:20:33 62° WSW 04:25:41 10° S
SL-24 DEB 4.3 04:16:54 10° N 04:21:29 60° W 04:26:02 10° SSW
SL-16 R/B 2.5 04:16:55 10° NW 04:22:14 42° WSW 04:27:32 10° S
FALCON 9 R/B 0.4 04:23:03 15° W 04:24:44 70° N 04:27:47 10° E
Lacrosse 5 2.3 04:20:48 10° NW 04:25:25 37° WSW 04:30:02 10° S
CZ-2C R/B 3.9 04:21:17 10° S 04:25:33 48° W 04:29:54 10° NNW
BREEZE-M DEB (TANK) 3.6 04:22:06 13° WSW 04:32:35 65° NW 04:36:09 10° NE
ARIANE 5 R/B 4.5 04:31:36 10° NW 04:33:33 12° WNW 04:35:30 10° W
Okean O Rocket 2.6 04:31:26 10° N 04:35:19 31° WNW 04:39:11 10° SW
Cosmos 2322 Rocket 3.0 04:32:38 10° NW 04:37:20 28° WSW 04:41:59 10° SSW
Cosmos 1340 Rocket 4.2 04:36:25 10° SSE 04:40:15 41° E 04:44:04 10° NNE
Meteor 1-26 Rocket 4.4 04:37:08 10° NNW 04:42:30 51° W 04:47:48 10° SSW
ADEOS II 2.9 04:38:52 10° NNE 04:44:02 54° E 04:49:09 10° S
OAO 1 Rocket 4.5 04:39:52 10° W 04:45:15 84° SSW 04:50:38 10° ESE
USA 229 DEB 3.8 04:38:31 10° SW 04:45:26 77° WNW 04:52:27 10° NNE
USA 229 3.8 04:38:37 10° SW 04:45:32 78° WNW 04:52:33 10° NNE
GP-B 3.4 04:41:51 10° N 04:46:17 75° E 04:50:42 10° S
Cosmos 1898 Rocket 3.8 04:43:49 10° SSW 04:48:51 52° WNW 04:53:55 10° N
H-2A ROCKET BODY 1.7 04:47:28 10° WSW 04:50:02 21° SSW 04:51:38 10° SE
Meteor 1-31 Rocket 4.4 04:48:07 10° NNE 04:51:40 36° E 04:55:13 10° SSE
Cosmos 2150 Rocket 4.5 04:47:16 10° SW 04:52:16 46° WNW 04:57:24 10° N
Okean-O 2.8 04:50:19 10° N 04:54:41 58° WNW 04:59:02 10° SSW
ATLAS CENTAUR R/B 4.0 04:50:48 10° N 04:54:49 28° NE 04:58:33 10° ESE
Resurs 1-4 Rocket 4.1 04:53:16 10° NW 04:55:07 12° WNW 04:56:56 10° W
